Location: Downe
(51.3167°N, 0.0500°E)
Time: 21:51:12
(UTC+00:00)

Cosmos 2016 Rocket - Pass Details

Date: 17 November 2019
Orbit: 947 x 1000 km, 83.0° (Epoch: 14 December)

Event Time Altitude Azimuth Distance (km) Brightness Sun altitude
Rises 06:06:36 0° 205° (SSW) 3,662 6.9 -11.3°
Reaches altitude 10° 06:09:10 10° 210° (SSW) 2,726 6.2 -11.0°
Maximum altitude 06:15:16 53° 286° (WNW) 1,206 4.1 -10.0°
Drops below altitude 10° 06:21:29 10° 3° (N) 2,774 6.2 -9.1°
Sets 06:24:07 0° 8° (N) 3,732 6.9 -8.7°
